Time,TemperatureF,DewpointF,PressureIn,WindDirection,WindDirectionDegrees,WindSpeedMPH,WindSpeedGustMPH,Humidity,HourlyPrecipIn,Conditions,Clouds,dailyrainin,SoftwareType,DateUTC
2013-01-19 00:04:00,12.0,5.3,30.30,South,180,5.0,11.0,74,0.00,,,0.00,Weather View 32 v70,2013-01-19 05:04:00,
2013-01-19 00:09:00,12.0,5.3,30.30,South,180,2.0,11.0,74,0.00,,,0.00,Weather View 32 v70,2013-01-19 05:09:00,
2013-01-19 00:14:00,13.0,6.6,30.30,SW,225,0.0,11.0,75,0.00,,,0.00,Weather View 32 v70,2013-01-19 05:14:00,
2013-01-19 00:24:00,13.0,6.3,30.30,SE,135,3.0,11.0,74,0.00,,,0.00,Weather View 32 v70,2013-01-19 05:24:00,
2013-01-19 00:29:00,13.0,6.3,30.30,SSE,158,3.0,11.0,74,0.00,,,0.00,Weather View 32 v70,2013-01-19 05:29:00,
2013-01-19 00:34:00,13.0,6.3,30.30,SSE,158,4.0,11.0,74,0.00,,,0.00,Weather View 32 v70,2013-01-19 05:34:00,
2013-01-19 00:42:00,13.0,6.0,30.29,South,180,1.0,11.0,73,0.00,,,0.00,Weather View 32 v70,2013-01-19 05:42:00,
2013-01-19 00:49:00,14.0,6.9,30.30,SE,135,1.0,11.0,73,0.00,,,0.00,Weather View 32 v70,2013-01-19 05:49:00,
2013-01-19 00:59:00,14.0,6.3,30.29,SSW,202,0.0,9.0,71,0.00,,,0.00,Weather View 32 v70,2013-01-19 05:59:00,
2013-01-19 01:09:00,14.0,6.0,30.29,SSW,202,1.0,9.0,70,0.00,,,0.00,Weather View 32 v70,2013-01-19 06:09:00,
2013-01-19 01:14:00,14.0,6.0,30.29,SSE,158,1.0,9.0,70,0.00,,,0.00,Weather View 32 v70,2013-01-19 06:14:00,
2013-01-19 01:24:00,14.0,6.0,30.28,SE,135,1.0,9.0,70,0.00,,,0.00,Weather View 32 v70,2013-01-19 06:24:00,
2013-01-19 01:34:00,15.0,7.0,30.28,SSW,202,1.0,8.0,70,0.00,,,0.00,Weather View 32 v70,2013-01-19 06:34:00,
2013-01-19 01:42:00,15.0,7.3,30.28,SSE,158,3.0,8.0,71,0.00,,,0.00,Weather View 32 v70,2013-01-19 06:42:00,
2013-01-19 01:49:00,15.0,7.9,30.28,SSE,158,3.0,6.0,73,0.00,,,0.00,Weather View 32 v70,2013-01-19 06:49:00,
2013-01-19 01:54:00,15.0,7.9,30.27,SE,135,2.0,6.0,73,0.00,,,0.00,Weather View 32 v70,2013-01-19 06:54:00,
2013-01-19 01:59:00,15.0,7.9,30.27,South,180,5.0,6.0,73,0.00,,,0.00,Weather View 32 v70,2013-01-19 06:59:00,
2013-01-19 02:09:00,15.0,8.5,30.27,SE,135,3.0,7.0,75,0.00,,,0.00,Weather View 32 v70,2013-01-19 07:09:00,
2013-01-19 02:14:00,15.0,8.8,30.26,South,180,4.0,7.0,76,0.00,,,0.00,Weather View 32 v70,2013-01-19 07:14:00,
2013-01-19 02:24:00,15.0,8.8,30.25,South,180,3.0,7.0,76,0.00,,,0.00,Weather View 32 v70,2013-01-19 07:24:00,
2013-01-19 02:34:00,15.0,8.2,30.25,South,180,2.0,7.0,74,0.00,,,0.00,Weather View 32 v70,2013-01-19 07:34:00,
2013-01-19 02:39:00,16.0,9.2,30.25,SE,135,1.0,8.0,74,0.00,,,0.00,Weather View 32 v70,2013-01-19 07:39:00,
2013-01-19 02:49:00,16.0,8.9,30.25,South,180,2.0,8.0,73,0.00,,,0.00,Weather View 32 v70,2013-01-19 07:49:00,
2013-01-19 02:59:00,16.0,8.6,30.24,West,270,1.0,8.0,72,0.00,,,0.00,Weather View 32 v70,2013-01-19 07:59:00,
2013-01-19 03:09:00,16.0,8.3,30.24,SE,135,0.0,8.0,71,0.00,,,0.00,Weather View 32 v70,2013-01-19 08:09:00,
2013-01-19 03:19:00,16.0,8.6,30.23,SSE,158,1.0,8.0,72,0.00,,,0.00,Weather View 32 v70,2013-01-19 08:19:00,
2013-01-19 03:24:00,17.0,9.5,30.23,South,180,1.0,8.0,72,0.00,,,0.00,Weather View 32 v70,2013-01-19 08:24:00,
2013-01-19 03:34:00,17.0,9.2,30.21,SE,135,1.0,8.0,71,0.00,,,0.00,Weather View 32 v70,2013-01-19 08:34:00,
2013-01-19 03:44:00,17.0,9.2,30.21,SE,135,1.0,8.0,71,0.00,,,0.00,Weather View 32 v70,2013-01-19 08:44:00,
2013-01-19 03:49:00,17.0,8.9,30.20,West,270,2.0,6.0,70,0.00,,,0.00,Weather View 32 v70,2013-01-19 08:49:00,
2013-01-19 03:59:00,17.0,8.9,30.20,SW,225,1.0,6.0,70,0.00,,,0.00,Weather View 32 v70,2013-01-19 08:59:00,
2013-01-19 04:09:00,17.0,9.2,30.19,South,180,1.0,6.0,71,0.00,,,0.00,Weather View 32 v70,2013-01-19 09:09:00,
2013-01-19 04:19:00,17.0,9.2,30.18,West,270,1.0,6.0,71,0.00,,,0.00,Weather View 32 v70,2013-01-19 09:19:00,
2013-01-19 04:29:00,18.0,10.5,30.18,SSE,158,1.0,6.0,72,0.00,,,0.00,Weather View 32 v70,2013-01-19 09:29:00,
2013-01-19 04:39:00,18.0,10.8,30.17,SSW,202,3.0,6.0,73,0.00,,,0.00,Weather View 32 v70,2013-01-19 09:39:00,
2013-01-19 04:44:00,18.0,10.8,30.17,South,180,5.0,7.0,73,0.00,,,0.00,Weather View 32 v70,2013-01-19 09:44:00,
2013-01-19 04:54:00,18.0,11.1,30.16,SE,135,1.0,8.0,74,0.00,,,0.00,Weather View 32 v70,2013-01-19 09:54:00,
2013-01-19 05:04:00,18.0,11.1,30.16,SSE,158,1.0,8.0,74,0.00,,,0.00,Weather View 32 v70,2013-01-19 10:04:00,
2013-01-19 05:14:00,19.0,11.5,30.15,SSW,202,0.0,8.0,72,0.00,,,0.00,Weather View 32 v70,2013-01-19 10:14:00,
2013-01-19 05:24:00,19.0,11.5,30.15,WNW,292,1.0,8.0,72,0.00,,,0.00,Weather View 32 v70,2013-01-19 10:24:00,
2013-01-19 05:34:00,19.0,11.5,30.15,SSE,158,6.0,8.0,72,0.00,,,0.00,Weather View 32 v70,2013-01-19 10:34:00,
2013-01-19 05:45:00,19.0,11.5,30.13,South,180,4.0,9.0,72,0.00,,,0.00,Weather View 32 v70,2013-01-19 10:45:00,
2013-01-19 05:54:00,19.0,11.5,30.14,SSE,158,4.0,9.0,72,0.00,,,0.00,Weather View 32 v70,2013-01-19 10:54:00,
2013-01-19 05:59:00,19.0,11.5,30.14,SE,135,1.0,9.0,72,0.00,,,0.00,Weather View 32 v70,2013-01-19 10:59:00,
2013-01-19 06:09:00,20.0,12.4,30.14,SSE,158,1.0,9.0,72,0.00,,,0.00,Weather View 32 v70,2013-01-19 11:09:00,
2013-01-19 06:14:00,20.0,12.4,30.13,South,180,3.0,9.0,72,0.00,,,0.00,Weather View 32 v70,2013-01-19 11:14:00,
2013-01-19 07:49:00,20.0,15.1,30.11,SE,135,1.0,5.0,81,0.00,,,0.00,Weather View 32 v70,2013-01-19 12:49:00,
2013-01-19 07:59:00,20.0,15.1,30.11,South,180,3.0,5.0,81,0.00,,,0.00,Weather View 32 v70,2013-01-19 12:59:00,
2013-01-19 08:04:00,20.0,15.1,30.11,SW,225,0.0,4.0,81,0.00,,,0.00,Weather View 32 v70,2013-01-19 13:04:00,
2013-01-19 08:14:00,20.0,15.4,30.11,South,180,1.0,4.0,82,0.00,,,0.00,Weather View 32 v70,2013-01-19 13:14:00,
2013-01-19 08:19:00,20.0,15.7,30.11,WNW,292,0.0,4.0,83,0.00,,,0.00,Weather View 32 v70,2013-01-19 13:19:00,
2013-01-19 08:29:00,20.0,15.7,30.11,South,180,1.0,4.0,83,0.00,,,0.00,Weather View 32 v70,2013-01-19 13:29:00,
2013-01-19 08:34:00,20.0,15.7,30.11,West,270,0.0,4.0,83,0.00,,,0.00,Weather View 32 v70,2013-01-19 13:34:00,
2013-01-19 08:39:00,20.0,15.7,30.10,SSE,158,0.0,4.0,83,0.00,,,0.00,Weather View 32 v70,2013-01-19 13:39:00,
2013-01-19 08:46:00,20.0,15.7,30.10,South,180,2.0,4.0,83,0.00,,,0.00,Weather View 32 v70,2013-01-19 13:46:00,
2013-01-19 08:54:00,21.0,16.7,30.10,WSW,248,1.0,3.0,83,0.00,,,0.00,Weather View 32 v70,2013-01-19 13:54:00,
2013-01-19 08:59:00,21.0,16.7,30.10,West,270,5.0,5.0,83,0.00,,,0.00,Weather View 32 v70,2013-01-19 13:59:00,
2013-01-19 09:09:00,21.0,16.9,30.10,WSW,248,3.0,6.0,84,0.00,,,0.00,Weather View 32 v70,2013-01-19 14:09:00,
2013-01-19 09:19:00,21.0,16.7,30.10,South,180,1.0,6.0,83,0.00,,,0.00,Weather View 32 v70,2013-01-19 14:19:00,
2013-01-19 09:24:00,22.0,17.6,30.10,SSE,158,1.0,6.0,83,0.00,,,0.00,Weather View 32 v70,2013-01-19 14:24:00,
2013-01-19 09:34:00,22.0,17.4,30.10,SSE,158,2.0,6.0,82,0.00,,,0.00,Weather View 32 v70,2013-01-19 14:34:00,
2013-01-19 09:44:00,22.0,17.1,30.10,SE,135,2.0,6.0,81,0.00,,,0.00,Weather View 32 v70,2013-01-19 14:44:00,
2013-01-19 09:49:00,22.0,16.8,30.09,WNW,292,0.0,6.0,80,0.00,,,0.00,Weather View 32 v70,2013-01-19 14:49:00,
2013-01-19 09:59:00,23.0,17.2,30.08,SE,135,2.0,6.0,78,0.00,,,0.00,Weather View 32 v70,2013-01-19 14:59:00,
2013-01-19 10:04:00,23.0,17.5,30.09,WNW,292,1.0,5.0,79,0.00,,,0.00,Weather View 32 v70,2013-01-19 15:04:00,
2013-01-19 10:09:00,23.0,17.5,30.09,SW,225,1.0,5.0,79,0.00,,,0.00,Weather View 32 v70,2013-01-19 15:09:00,
2013-01-19 10:19:00,23.0,17.2,30.08,WNW,292,1.0,5.0,78,0.00,,,0.00,Weather View 32 v70,2013-01-19 15:19:00,
2013-01-19 10:29:00,24.0,18.1,30.08,South,180,2.0,5.0,78,0.00,,,0.00,Weather View 32 v70,2013-01-19 15:29:00,
2013-01-19 10:39:00,24.0,18.1,30.06,SW,225,1.0,5.0,78,0.00,,,0.00,Weather View 32 v70,2013-01-19 15:39:00,
2013-01-19 10:48:00,25.0,18.8,30.06,WSW,248,1.0,5.0,77,0.00,,,0.00,Weather View 32 v70,2013-01-19 15:48:00,
2013-01-19 10:54:00,25.0,18.8,30.06,West,270,1.0,5.0,77,0.00,,,0.00,Weather View 32 v70,2013-01-19 15:54:00,
2013-01-19 11:04:00,26.0,19.5,30.05,SW,225,0.0,5.0,76,0.00,,,0.00,Weather View 32 v70,2013-01-19 16:04:00,
2013-01-19 11:14:00,26.0,19.2,30.04,SW,225,1.0,5.0,75,0.00,,,0.00,Weather View 32 v70,2013-01-19 16:14:00,
2013-01-19 11:19:00,27.0,20.1,30.03,South,180,1.0,5.0,75,0.00,,,0.00,Weather View 32 v70,2013-01-19 16:19:00,
2013-01-19 11:24:00,27.0,19.8,30.03,South,180,2.0,5.0,74,0.00,,,0.00,Weather View 32 v70,2013-01-19 16:24:00,
2013-01-19 11:29:00,27.0,19.8,30.02,South,180,1.0,5.0,74,0.00,,,0.00,Weather View 32 v70,2013-01-19 16:29:00,
2013-01-19 11:39:00,27.0,19.5,30.01,SSE,158,3.0,5.0,73,0.00,,,0.00,Weather View 32 v70,2013-01-19 16:39:00,
2013-01-19 11:44:00,27.0,19.5,30.01,SW,225,3.0,5.0,73,0.00,,,0.00,Weather View 32 v70,2013-01-19 16:44:00,
2013-01-19 11:54:00,28.0,20.8,30.01,SE,135,3.0,5.0,74,0.00,,,0.00,Weather View 32 v70,2013-01-19 16:54:00,
2013-01-19 11:59:00,28.0,20.1,30.00,WNW,292,1.0,5.0,72,0.00,,,0.00,Weather View 32 v70,2013-01-19 16:59:00,
2013-01-19 12:09:00,28.0,20.1,30.00,WNW,292,1.0,6.0,72,0.00,,,0.00,Weather View 32 v70,2013-01-19 17:09:00,
2013-01-19 12:14:00,28.0,19.8,29.99,West,270,2.0,6.0,71,0.00,,,0.00,Weather View 32 v70,2013-01-19 17:14:00,
2013-01-19 12:24:00,28.0,20.1,29.99,SW,225,2.0,6.0,72,0.00,,,0.00,Weather View 32 v70,2013-01-19 17:24:00,
2013-01-19 12:44:00,28.0,19.8,29.98,SE,135,1.0,6.0,71,0.00,,,0.00,Weather View 32 v70,2013-01-19 17:44:00,
2013-01-19 12:54:00,29.0,20.4,29.96,SE,135,2.0,6.0,70,0.00,,,0.00,Weather View 32 v70,2013-01-19 17:54:00,
2013-01-19 13:00:00,29.0,20.4,29.97,SE,135,1.0,6.0,70,0.00,,,0.00,Weather View 32 v70,2013-01-19 18:00:00,
2013-01-19 13:09:00,29.0,20.4,29.96,SSE,158,3.0,6.0,70,0.00,,,0.00,Weather View 32 v70,2013-01-19 18:09:00,
2013-01-19 13:19:00,30.0,21.7,29.97,WSW,248,1.0,6.0,71,0.00,,,0.00,Weather View 32 v70,2013-01-19 18:19:00,
2013-01-19 13:24:00,30.0,21.1,29.96,South,180,1.0,5.0,69,0.00,,,0.00,Weather View 32 v70,2013-01-19 18:24:00,
2013-01-19 13:34:00,30.0,21.1,29.96,WNW,292,1.0,6.0,69,0.00,,,0.00,Weather View 32 v70,2013-01-19 18:34:00,
2013-01-19 13:49:00,30.0,21.1,29.95,WSW,248,2.0,6.0,69,0.00,,,0.00,Weather View 32 v70,2013-01-19 18:49:00,
2013-01-19 13:54:00,30.0,21.1,29.96,WSW,248,1.0,6.0,69,0.00,,,0.00,Weather View 32 v70,2013-01-19 18:54:00,
2013-01-19 13:59:00,30.0,20.7,29.96,South,180,3.0,6.0,68,0.00,,,0.00,Weather View 32 v70,2013-01-19 18:59:00,
2013-01-19 14:09:00,30.0,21.1,29.97,SE,135,1.0,6.0,69,0.00,,,0.00,Weather View 32 v70,2013-01-19 19:09:00,
2013-01-19 14:24:00,30.0,21.4,29.97,SW,225,1.0,6.0,70,0.00,,,0.00,Weather View 32 v70,2013-01-19 19:24:00,
2013-01-19 14:29:00,30.0,21.4,29.97,SE,135,3.0,6.0,70,0.00,,,0.00,Weather View 32 v70,2013-01-19 19:29:00,
2013-01-19 14:34:00,30.0,21.4,29.96,South,180,3.0,5.0,70,0.00,,,0.00,Weather View 32 v70,2013-01-19 19:34:00,
2013-01-19 14:44:00,30.0,21.7,29.96,SSE,158,1.0,5.0,71,0.00,,,0.00,Weather View 32 v70,2013-01-19 19:44:00,
2013-01-19 14:50:00,30.0,21.4,29.96,SSW,202,0.0,5.0,70,0.00,,,0.00,Weather View 32 v70,2013-01-19 19:50:00,
2013-01-19 14:59:00,31.0,22.4,29.95,SW,225,0.0,5.0,70,0.00,,,0.00,Weather View 32 v70,2013-01-19 19:59:00,
2013-01-19 15:09:00,30.0,21.7,29.96,SSW,202,1.0,5.0,71,0.00,,,0.00,Weather View 32 v70,2013-01-19 20:09:00,
2013-01-19 15:19:00,31.0,22.4,29.95,SW,225,0.0,5.0,70,0.00,,,0.00,Weather View 32 v70,2013-01-19 20:19:00,
2013-01-19 15:24:00,30.0,21.4,29.95,SE,135,1.0,5.0,70,0.00,,,0.00,Weather View 32 v70,2013-01-19 20:24:00,
2013-01-19 15:34:00,30.0,21.7,29.95,WSW,248,1.0,4.0,71,0.00,,,0.00,Weather View 32 v70,2013-01-19 20:34:00,
2013-01-19 15:49:00,30.0,21.7,29.95,West,270,1.0,4.0,71,0.00,,,0.00,Weather View 32 v70,2013-01-19 20:49:00,
2013-01-19 15:59:00,30.0,23.0,29.95,SW,225,0.0,4.0,75,0.00,,,0.00,Weather View 32 v70,2013-01-19 20:59:00,
2013-01-19 16:04:00,30.0,23.4,29.95,SSE,158,1.0,4.0,76,0.00,,,0.00,Weather View 32 v70,2013-01-19 21:04:00,
2013-01-19 16:14:00,29.0,23.0,29.95,SW,225,0.0,3.0,78,0.00,,,0.00,Weather View 32 v70,2013-01-19 21:14:00,
2013-01-19 16:19:00,29.0,23.3,29.94,SW,225,0.0,3.0,79,0.00,,,0.00,Weather View 32 v70,2013-01-19 21:19:00,
2013-01-19 16:24:00,29.0,23.9,29.94,SW,225,0.0,3.0,81,0.00,,,0.00,Weather View 32 v70,2013-01-19 21:24:00,
2013-01-19 16:34:00,28.0,23.2,29.94,WNW,292,0.0,2.0,82,0.00,,,0.00,Weather View 32 v70,2013-01-19 21:34:00,
2013-01-19 16:39:00,28.0,23.5,29.93,WNW,292,0.0,2.0,83,0.00,,,0.00,Weather View 32 v70,2013-01-19 21:39:00,
2013-01-19 16:59:00,27.0,23.1,29.94,SW,225,0.0,2.0,85,0.00,,,0.00,Weather View 32 v70,2013-01-19 21:59:00,
2013-01-19 17:04:00,27.0,23.1,29.94,WNW,292,0.0,2.0,85,0.00,,,0.00,Weather View 32 v70,2013-01-19 22:04:00,
2013-01-19 17:14:00,27.0,23.1,29.94,SW,225,0.0,2.0,85,0.00,,,0.00,Weather View 32 v70,2013-01-19 22:14:00,
2013-01-19 17:24:00,27.0,23.4,29.95,SSW,202,1.0,2.0,86,0.00,,,0.00,Weather View 32 v70,2013-01-19 22:24:00,
2013-01-19 17:29:00,27.0,23.1,29.95,SE,135,0.0,2.0,85,0.00,,,0.00,Weather View 32 v70,2013-01-19 22:29:00,
2013-01-19 17:34:00,27.0,23.4,29.95,West,270,1.0,2.0,86,0.00,,,0.00,Weather View 32 v70,2013-01-19 22:34:00,
2013-01-19 17:44:00,28.0,24.6,29.94,South,180,0.0,2.0,87,0.00,,,0.00,Weather View 32 v70,2013-01-19 22:44:00,
2013-01-19 17:52:00,28.0,24.6,29.94,South,180,0.0,2.0,87,0.00,,,0.00,Weather View 32 v70,2013-01-19 22:52:00,
2013-01-19 17:59:00,28.0,24.6,29.94,SSW,202,1.0,2.0,87,0.00,,,0.00,Weather View 32 v70,2013-01-19 22:59:00,
2013-01-19 18:10:00,28.0,24.9,29.94,SSW,202,0.0,2.0,88,0.00,,,0.00,Weather View 32 v70,2013-01-19 23:10:00,
2013-01-19 18:24:00,28.0,25.2,29.94,WNW,292,0.0,3.0,89,0.00,,,0.00,Weather View 32 v70,2013-01-19 23:24:00,
2013-01-19 18:34:00,28.0,25.2,29.93,South,180,1.0,3.0,89,0.00,,,0.00,Weather View 32 v70,2013-01-19 23:34:00,
2013-01-19 18:44:00,29.0,26.4,29.93,SSW,202,0.0,5.0,90,0.00,,,0.00,Weather View 32 v70,2013-01-19 23:44:00,
2013-01-19 18:52:00,29.0,26.4,29.94,SSW,202,1.0,5.0,90,0.00,,,0.00,Weather View 32 v70,2013-01-19 23:52:00,
2013-01-19 18:59:00,28.0,25.2,29.94,SW,225,1.0,5.0,89,0.00,,,0.00,Weather View 32 v70,2013-01-19 23:59:00,
2013-01-19 19:09:00,29.0,26.2,29.94,South,180,3.0,6.0,89,0.00,,,0.00,Weather View 32 v70,2013-01-20 00:09:00,
2013-01-19 19:14:00,31.0,27.3,29.94,SE,135,3.0,8.0,86,0.00,,,0.00,Weather View 32 v70,2013-01-20 00:14:00,
2013-01-19 19:24:00,34.0,27.5,29.94,South,180,6.0,10.0,77,0.00,,,0.00,Weather View 32 v70,2013-01-20 00:24:00,
2013-01-19 19:34:00,34.0,26.6,29.94,SW,225,2.0,10.0,74,0.00,,,0.00,Weather View 32 v70,2013-01-20 00:34:00,
2013-01-19 19:49:00,33.0,26.6,29.93,SW,225,1.0,10.0,77,0.00,,,0.00,Weather View 32 v70,2013-01-20 00:49:00,
2013-01-19 19:59:00,33.0,26.9,29.94,South,180,3.0,10.0,78,0.00,,,0.00,Weather View 32 v70,2013-01-20 00:59:00,
2013-01-19 20:04:00,33.0,26.6,29.94,SW,225,1.0,10.0,77,0.00,,,0.00,Weather View 32 v70,2013-01-20 01:04:00,
2013-01-19 20:24:00,32.0,25.9,29.94,SSW,202,4.0,10.0,78,0.00,,,0.00,Weather View 32 v70,2013-01-20 01:24:00,
2013-01-19 20:29:00,32.0,26.2,29.94,SE,135,3.0,10.0,79,0.00,,,0.00,Weather View 32 v70,2013-01-20 01:29:00,
2013-01-19 20:34:00,32.0,26.2,29.94,SW,225,2.0,10.0,79,0.00,,,0.00,Weather View 32 v70,2013-01-20 01:34:00,
2013-01-19 20:44:00,34.0,27.2,29.93,WSW,248,1.0,10.0,76,0.00,,,0.00,Weather View 32 v70,2013-01-20 01:44:00,
2013-01-19 20:49:00,34.0,26.9,29.93,South,180,5.0,10.0,75,0.00,,,0.00,Weather View 32 v70,2013-01-20 01:49:00,
2013-01-19 20:59:00,34.0,26.6,29.92,South,180,4.0,11.0,74,0.00,,,0.00,Weather View 32 v70,2013-01-20 01:59:00,
2013-01-19 21:04:00,34.0,26.6,29.92,South,180,10.0,11.0,74,0.00,,,0.00,Weather View 32 v70,2013-01-20 02:04:00,
2013-01-19 21:14:00,35.0,26.5,29.91,South,180,12.0,14.0,71,0.00,,,0.00,Weather View 32 v70,2013-01-20 02:14:00,
2013-01-19 21:24:00,36.0,27.2,29.91,SE,135,5.0,14.0,70,0.00,,,0.00,Weather View 32 v70,2013-01-20 02:24:00,
2013-01-19 21:34:00,36.0,26.5,29.91,South,180,5.0,19.0,68,0.00,,,0.00,Weather View 32 v70,2013-01-20 02:34:00,
2013-01-19 21:39:00,36.0,26.8,29.90,South,180,9.0,19.0,69,0.00,,,0.00,Weather View 32 v70,2013-01-20 02:39:00,
2013-01-19 21:50:00,36.0,26.5,29.89,South,180,14.0,19.0,68,0.00,,,0.00,Weather View 32 v70,2013-01-20 02:50:00,
2013-01-19 21:59:00,37.0,27.1,29.89,SSW,202,3.0,19.0,67,0.00,,,0.00,Weather View 32 v70,2013-01-20 02:59:00,
2013-01-19 22:04:00,37.0,27.1,29.88,SSE,158,15.0,19.0,67,0.00,,,0.00,Weather View 32 v70,2013-01-20 03:04:00,
2013-01-19 22:14:00,36.0,26.5,29.88,South,180,11.0,19.0,68,0.00,,,0.00,Weather View 32 v70,2013-01-20 03:14:00,
2013-01-19 22:29:00,36.0,26.5,29.87,SW,225,10.0,19.0,68,0.00,,,0.00,Weather View 32 v70,2013-01-20 03:29:00,
2013-01-19 22:34:00,36.0,26.5,29.87,South,180,9.0,19.0,68,0.00,,,0.00,Weather View 32 v70,2013-01-20 03:34:00,
2013-01-19 22:44:00,36.0,26.5,29.87,SSW,202,4.0,19.0,68,0.00,,,0.00,Weather View 32 v70,2013-01-20 03:44:00,
2013-01-19 22:49:00,36.0,26.5,29.86,SSE,158,9.0,19.0,68,0.00,,,0.00,Weather View 32 v70,2013-01-20 03:49:00,
2013-01-19 22:54:00,37.0,27.1,29.86,SSW,202,8.0,19.0,67,0.00,,,0.00,Weather View 32 v70,2013-01-20 03:54:00,
2013-01-19 23:04:00,37.0,27.1,29.85,SSW,202,4.0,19.0,67,0.00,,,0.00,Weather View 32 v70,2013-01-20 04:04:00,
2013-01-19 23:14:00,37.0,27.1,29.85,WNW,292,4.0,19.0,67,0.00,,,0.00,Weather View 32 v70,2013-01-20 04:14:00,
2013-01-19 23:19:00,37.0,26.7,29.84,South,180,8.0,19.0,66,0.00,,,0.00,Weather View 32 v70,2013-01-20 04:19:00,
2013-01-19 23:24:00,36.0,26.1,29.84,SSE,158,7.0,19.0,67,0.00,,,0.00,Weather View 32 v70,2013-01-20 04:24:00,
2013-01-19 23:34:00,35.0,26.2,29.84,SSE,158,9.0,18.0,70,0.00,,,0.00,Weather View 32 v70,2013-01-20 04:34:00,
2013-01-19 23:44:00,35.0,26.2,29.83,SSE,158,6.0,18.0,70,0.00,,,0.00,Weather View 32 v70,2013-01-20 04:44:00,
2013-01-19 23:54:00,35.0,26.5,29.83,South,180,8.0,18.0,71,0.00,,,0.00,Weather View 32 v70,2013-01-20 04:54:00,